| time (UTC) | temp F | wind direction | speed MPH | gust MPH | rain 1hr in | rain 24hr in | rain mn in | humidity % | barometer mb |
| 20260905123526 | 73 | 52 | 0.0 | 1.0 | 0.00 | 0.16 | 0.16 | 76 | 1011.5 |
| 20260905122527 | 73 | 38 | 0.0 | 2.0 | 0.00 | 0.16 | 0.16 | 76 | 1011.4 |
| 20260905121527 | 72 | 26 | 1.0 | 2.0 | 0.00 | 0.16 | 0.16 | 77 | 1011.4 |
| 20260905120527 | 72 | 350 | 0.0 | 1.0 | 0.00 | 0.16 | 0.16 | 83 | 1011.2 |
| 20260905115527 | 71 | 22 | 0.0 | 2.0 | 0.00 | 0.16 | 0.16 | 86 | 1010.9 |
| 20260905114527 | 70 | 19 | 1.0 | 2.0 | 0.00 | 0.16 | 0.16 | 90 | 1010.9 |
| 20260905113528 | 70 | 52 | 0.0 | 1.0 | 0.00 | 0.16 | 0.16 | 91 | 1010.8 |
| 20260905112528 | 70 | 44 | 0.0 | 2.0 | 0.00 | 0.16 | 0.16 | 92 | 1010.7 |
| 20260905111528 | 71 | 0.0 | 0.0 | 0.00 | 0.16 | 0.16 | 92 | 1010.7 | |
| 20260905110528 | 71 | 187 | 0.0 | 1.0 | 0.00 | 0.16 | 0.16 | 92 | 1010.6 |
| 20260905105548 | 72 | 0.0 | 0.0 | 0.00 | 0.16 | 0.16 | 92 | 1010.3 | |
| 20260905104528 | 72 | 0.0 | 0.0 | 0.00 | 0.16 | 0.16 | 92 | 1010.2 | |
| 20260905103528 | 73 | 0.0 | 0.0 | 0.00 | 0.16 | 0.16 | 92 | 1010.2 | |
| 20260905102529 | 73 | 0.0 | 0.0 | 0.00 | 0.16 | 0.16 | 92 | 1010.1 | |
| 20260905101529 | 73 | 0.0 | 0.0 | 0.00 | 0.16 | 0.16 | 92 | 1009.9 | |
| 20260905100529 | 73 | 0.0 | 0.0 | 0.00 | 0.16 | 0.16 | 92 | 1009.7 | |
| 20260905095549 | 73 | 0.0 | 0.0 | 0.00 | 0.16 | 0.16 | 92 | 1009.7 | |
| 20260905094550 | 73 | 36 | 0.0 | 1.0 | 0.00 | 0.16 | 0.16 | 92 | 1009.6 |
| 20260905093530 | 73 | 73 | 0.0 | 1.0 | 0.00 | 0.16 | 0.16 | 92 | 1009.8 |
| 20260905092530 | 73 | 37 | 0.0 | 2.0 | 0.00 | 0.16 | 0.16 | 92 | 1009.8 |
| 20260905091530 | 74 | 32 | 0.0 | 2.0 | 0.00 | 0.16 | 0.16 | 92 | 1009.8 |
| 20260905090530 | 74 | 0.0 | 0.0 | 0.00 | 0.16 | 0.16 | 92 | 1010.0 | |
| 20260905085530 | 73 | 0.0 | 0.0 | 0.00 | 0.16 | 0.16 | 92 | 1010.1 | |
| 20260905084530 | 73 | 0.0 | 0.0 | 0.00 | 0.16 | 0.16 | 92 | 1010.0 | |
| 20260905083531 | 74 | 0.0 | 0.0 | 0.00 | 0.16 | 0.16 | 92 | 1009.8 | |
| 20260905082531 | 74 | 0.0 | 0.0 | 0.00 | 0.16 | 0.16 | 92 | 1009.8 | |
| 20260905081516 | 74 | 147 | 0.0 | 0.0 | 0.00 | 0.16 | 0.16 | 92 | 1009.7 |
| 20260905080536 | 74 | 0.0 | 0.0 | 0.00 | 0.16 | 0.16 | 92 | 1009.8 | |
| 20260905075516 | 74 | 287 | 0.0 | 0.0 | 0.00 | 0.16 | 0.16 | 92 | 1009.8 |
| 20260905074516 | 74 | 174 | 0.0 | 3.0 | 0.00 | 0.16 | 0.16 | 92 | 1009.9 |
| 20260905073517 | 73 | 151 | 0.0 | 1.0 | 0.00 | 0.16 | 0.16 | 92 | 1009.9 |
| 20260905072517 | 73 | 133 | 0.0 | 0.0 | 0.02 | 0.16 | 0.16 | 91 | 1009.9 |
| 20260905071517 | 73 | 0.0 | 0.0 | 0.02 | 0.20 | 0.16 | 91 | 1009.8 | |
| 20260905070517 | 73 | 0.0 | 0.0 | 0.03 | 0.26 | 0.16 | 91 | 1009.8 | |
| 20260905065517 | 73 | 0.0 | 0.0 | 0.04 | 0.32 | 0.16 | 91 | 1009.9 | |
| 20260905064518 | 74 | 35 | 0.0 | 2.0 | 0.05 | 0.40 | 0.16 | 91 | 1010.0 |
| 20260905063518 | 74 | 168 | 0.0 | 2.0 | 0.08 | 0.48 | 0.16 | 91 | 1010.5 |
| 20260905062538 | 74 | 41 | 1.0 | 3.0 | 0.11 | 0.54 | 0.14 | 91 | 1010.8 |
| 20260905061538 | 74 | 37 | 1.0 | 3.0 | 0.14 | 0.61 | 0.14 | 90 | 1011.0 |
| 20260905060518 | 74 | 0.0 | 0.0 | 0.12 | 0.60 | 0.12 | 90 | 1010.7 | |
| 20260905055539 | 75 | 29 | 1.0 | 3.0 | 0.12 | 0.62 | 0.12 | 89 | 1010.7 |
| 20260905054518 | 76 | 49 | 1.0 | 3.0 | 0.11 | 0.61 | 0.11 | 88 | 1010.8 |
| 20260905053518 | 76 | 75 | 0.0 | 1.0 | 0.08 | 0.57 | 0.08 | 87 | 1010.9 |
| 20260905052518 | 77 | 144 | 0.0 | 1.0 | 0.03 | 0.53 | 0.03 | 85 | 1010.9 |
| 20260905051519 | 78 | 30 | 0.0 | 3.0 | 0.00 | 0.50 | 0.00 | 83 | 1011.1 |
| 20260905050519 | 79 | 215 | 1.0 | 2.0 | 0.00 | 0.50 | 0.00 | 82 | 1011.2 |
| 20260905045539 | 79 | 0.0 | 0.0 | 0.00 | 0.49 | 0.00 | 82 | 1010.9 | |
| 20260905044520 | 79 | 0.0 | 0.0 | 0.00 | 0.49 | 0.00 | 82 | 1010.9 | |
| 20260905043520 | 79 | 0.0 | 0.0 | 0.00 | 0.49 | 0.00 | 82 | 1010.9 | |
| 20260905042519 | 79 | 0.0 | 0.0 | 0.00 | 0.49 | 0.00 | 82 | 1011.0 | |
| 20260905041520 | 79 | 0.0 | 0.0 | 0.00 | 0.49 | 0.00 | 82 | 1011.1 | |
| 20260905040520 | 79 | 0.0 | 0.0 | 0.00 | 0.49 | 0.00 | 82 | 1011.0 | |
| 20260905035520 | 79 | 0.0 | 0.0 | 0.00 | 0.49 | 0.49 | 81 | 1010.9 | |
| 20260905034521 | 79 | 0.0 | 0.0 | 0.00 | 0.49 | 0.49 | 81 | 1011.0 | |
| 20260905033521 | 79 | 0.0 | 0.0 | 0.00 | 0.49 | 0.49 | 81 | 1011.2 | |
| 20260905032521 | 80 | 0.0 | 0.0 | 0.00 | 0.49 | 0.49 | 80 | 1011.3 | |
| 20260905031538 | 80 | 195 | 0.0 | 1.0 | 0.00 | 0.49 | 0.49 | 81 | 1011.5 |
| 20260905030519 | 80 | 0.0 | 0.0 | 0.00 | 0.49 | 0.49 | 81 | 1011.5 | |
| 20260905025516 | 79 | 162 | 0.0 | 1.0 | 0.00 | 0.49 | 0.49 | 82 | 1011.6 |
| 20260905024516 | 79 | 356 | 0.0 | 1.0 | 0.00 | 0.49 | 0.49 | 83 | 1011.6 |
| 20260905023516 | 79 | 27 | 0.0 | 1.0 | 0.00 | 0.49 | 0.49 | 83 | 1011.6 |
| 20260905022536 | 79 | 0.0 | 0.0 | 0.00 | 0.49 | 0.49 | 83 | 1011.5 | |
| 20260905021557 | 79 | 329 | 0.0 | 1.0 | 0.00 | 0.49 | 0.49 | 83 | 1011.5 |
| 20260905020516 | 79 | 218 | 0.0 | 1.0 | 0.00 | 0.49 | 0.49 | 83 | 1011.5 |
| 20260905015516 | 80 | 20 | 0.0 | 1.0 | 0.00 | 0.49 | 0.49 | 83 | 1011.5 |
| 20260905014517 | 80 | 316 | 0.0 | 0.0 | 0.00 | 0.49 | 0.49 | 83 | 1011.7 |
| 20260905013537 | 80 | 0.0 | 0.0 | 0.00 | 0.49 | 0.49 | 83 | 1011.6 | |
| 20260905012517 | 80 | 215 | 0.0 | 0.0 | 0.00 | 0.49 | 0.49 | 83 | 1011.6 |
| 20260905011517 | 80 | 355 | 0.0 | 0.0 | 0.00 | 0.49 | 0.49 | 83 | 1011.6 |
| 20260905010518 | 80 | 0.0 | 0.0 | 0.00 | 0.49 | 0.49 | 83 | 1011.6 | |
| 20260905005538 | 80 | 204 | 0.0 | 1.0 | 0.00 | 0.49 | 0.49 | 82 | 1011.6 |
| 20260905004518 | 80 | 255 | 0.0 | 0.0 | 0.00 | 0.49 | 0.49 | 82 | 1011.7 |
| 20260905003538 | 80 | 84 | 0.0 | 0.0 | 0.00 | 0.49 | 0.49 | 81 | 1011.6 |
| 20260905002518 | 80 | 0.0 | 0.0 | 0.00 | 0.49 | 0.49 | 80 | 1011.4 | |
| 20260905001518 | 80 | 14 | 0.0 | 0.0 | 0.00 | 0.49 | 0.49 | 78 | 1011.2 |
| 20260905000518 | 80 | 341 | 0.0 | 1.0 | 0.00 | 0.49 | 0.49 | 77 | 1011.1 |
| 20260904235515 | 80 | 215 | 0.0 | 0.0 | 0.00 | 0.49 | 0.49 | 77 | 1011.0 |
| 20260904234516 | 81 | 255 | 0.0 | 1.0 | 0.00 | 0.49 | 0.49 | 76 | 1011.0 |
| 20260904233556 | 81 | 0.0 | 0.0 | 0.00 | 0.49 | 0.49 | 76 | 1011.0 | |
| 20260904232516 | 81 | 49 | 0.0 | 0.0 | 0.00 | 0.49 | 0.49 | 75 | 1011.2 |
| 20260904231516 | 82 | 2 | 0.0 | 1.0 | 0.00 | 0.49 | 0.49 | 75 | 1011.3 |
| 20260904230517 | 82 | 317 | 0.0 | 0.0 | 0.00 | 0.49 | 0.49 | 75 | 1011.3 |
| 20260904225517 | 82 | 189 | 0.0 | 0.0 | 0.00 | 0.49 | 0.49 | 74 | 1011.7 |
| 20260904224517 | 82 | 0.0 | 0.0 | 0.00 | 0.49 | 0.49 | 74 | 1011.9 | |
| 20260904223517 | 83 | 0.0 | 0.0 | 0.00 | 0.49 | 0.49 | 74 | 1012.1 | |
| 20260904222517 | 83 | 145 | 0.0 | 1.0 | 0.00 | 0.49 | 0.49 | 73 | 1012.1 |
| 20260904221517 | 83 | 0.0 | 0.0 | 0.00 | 0.49 | 0.49 | 72 | 1012.1 | |
| 20260904220538 | 83 | 352 | 0.0 | 1.0 | 0.00 | 0.49 | 0.49 | 72 | 1011.9 |
| 20260904215518 | 84 | 161 | 0.0 | 0.0 | 0.00 | 0.49 | 0.49 | 72 | 1011.8 |
| 20260904214518 | 84 | 176 | 0.0 | 1.0 | 0.00 | 0.49 | 0.49 | 71 | 1011.9 |
| 20260904213518 | 85 | 127 | 0.0 | 1.0 | 0.00 | 0.49 | 0.49 | 70 | 1011.7 |
| 20260904212519 | 85 | 98 | 0.0 | 1.0 | 0.00 | 0.49 | 0.49 | 70 | 1011.7 |
| 20260904211518 | 85 | 284 | 0.0 | 0.0 | 0.00 | 0.49 | 0.49 | 69 | 1011.8 |
| 20260904210518 | 85 | 0.0 | 0.0 | 0.00 | 0.49 | 0.49 | 68 | 1011.7 | |
| 20260904205539 | 85 | 0.0 | 0.0 | 0.00 | 0.49 | 0.49 | 66 | 1011.9 | |
| 20260904204516 | 86 | 146 | 0.0 | 0.0 | 0.00 | 0.49 | 0.49 | 66 | 1011.8 |
| 20260904203536 | 86 | 145 | 0.0 | 0.0 | 0.00 | 0.49 | 0.49 | 64 | 1011.9 |
| 20260904202516 | 85 | 117 | 0.0 | 1.0 | 0.00 | 0.49 | 0.49 | 64 | 1011.8 |
| 20260904201516 | 85 | 203 | 0.0 | 1.0 | 0.00 | 0.49 | 0.49 | 65 | 1012.0 |
| 20260904200537 | 86 | 218 | 0.0 | 1.0 | 0.00 | 0.49 | 0.49 | 63 | 1012.2 |
| 20260904195517 | 86 | 171 | 0.0 | 2.0 | 0.00 | 0.49 | 0.49 | 61 | 1012.3 |
| 20260904194537 | 87 | 203 | 0.0 | 2.0 | 0.00 | 0.49 | 0.49 | 61 | 1012.3 |
| 20260904193517 | 88 | 150 | 0.0 | 2.0 | 0.00 | 0.49 | 0.49 | 58 | 1012.3 |
| 20260904192517 | 90 | 117 | 0.0 | 1.0 | 0.00 | 0.49 | 0.49 | 58 | 1012.5 |
| 20260904191518 | 91 | 99 | 1.0 | 1.0 | 0.00 | 0.49 | 0.49 | 56 | 1012.5 |
| 20260904190538 | 91 | 91 | 0.0 | 3.0 | 0.00 | 0.49 | 0.49 | 56 | 1012.6 |
| 20260904185558 | 92 | 91 | 1.0 | 2.0 | 0.00 | 0.49 | 0.49 | 55 | 1012.8 |
| 20260904184518 | 94 | 91 | 1.0 | 3.0 | 0.00 | 0.49 | 0.49 | 55 | 1012.9 |
| 20260904183518 | 93 | 90 | 1.0 | 2.0 | 0.00 | 0.49 | 0.49 | 55 | 1013.0 |
| 20260904182518 | 93 | 92 | 1.0 | 1.0 | 0.00 | 0.49 | 0.49 | 54 | 1013.0 |
| 20260904181539 | 94 | 91 | 1.0 | 1.0 | 0.00 | 0.49 | 0.49 | 53 | 1012.9 |
| 20260904180516 | 93 | 91 | 1.0 | 1.0 | 0.00 | 0.49 | 0.49 | 55 | 1013.1 |
| 20260904175556 | 93 | 90 | 1.0 | 1.0 | 0.00 | 0.49 | 0.49 | 56 | 1013.0 |
| 20260904174516 | 92 | 90 | 1.0 | 3.0 | 0.00 | 0.49 | 0.49 | 57 | 1013.1 |
| 20260904173536 | 92 | 91 | 1.0 | 2.0 | 0.00 | 0.49 | 0.49 | 55 | 1013.0 |
| 20260904172517 | 92 | 91 | 1.0 | 3.0 | 0.00 | 0.49 | 0.49 | 56 | 1013.0 |
| 20260904171516 | 92 | 90 | 1.0 | 2.0 | 0.00 | 0.49 | 0.49 | 56 | 1013.1 |
| 20260904170517 | 92 | 90 | 1.0 | 2.0 | 0.00 | 0.49 | 0.49 | 55 | 1013.0 |
| 20260904165537 | 91 | 90 | 1.0 | 4.0 | 0.00 | 0.49 | 0.49 | 56 | 1013.1 |
| 20260904164517 | 91 | 90 | 1.0 | 2.0 | 0.00 | 0.49 | 0.49 | 57 | 1013.2 |
| 20260904163517 | 91 | 91 | 1.0 | 3.0 | 0.00 | 0.49 | 0.49 | 58 | 1013.3 |
| 20260904162517 | 91 | 230 | 2.0 | 3.0 | 0.00 | 0.49 | 0.49 | 58 | 1013.3 |
| 20260904161517 | 90 | 230 | 2.0 | 3.0 | 0.00 | 0.49 | 0.49 | 57 | 1013.3 |
| 20260904160516 | 90 | 257 | 1.0 | 4.0 | 0.00 | 0.49 | 0.49 | 57 | 1013.3 |
| 20260904155516 | 90 | 240 | 1.0 | 5.0 | 0.00 | 0.49 | 0.49 | 58 | 1013.4 |
| 20260904154517 | 89 | 250 | 1.0 | 4.0 | 0.00 | 0.49 | 0.49 | 58 | 1013.2 |
| 20260904153537 | 89 | 203 | 1.0 | 3.0 | 0.00 | 0.49 | 0.49 | 59 | 1013.2 |
| 20260904152517 | 89 | 228 | 1.0 | 4.0 | 0.00 | 0.49 | 0.49 | 60 | 1013.4 |
| 20260904151517 | 89 | 244 | 1.0 | 3.0 | 0.00 | 0.49 | 0.49 | 59 | 1013.4 |
| 20260904150517 | 88 | 247 | 1.0 | 3.0 | 0.00 | 0.49 | 0.49 | 60 | 1013.2 |
| 20260904145517 | 87 | 192 | 1.0 | 3.0 | 0.00 | 0.49 | 0.49 | 61 | 1013.2 |
| 20260904144517 | 87 | 185 | 1.0 | 3.0 | 0.00 | 0.49 | 0.49 | 62 | 1013.2 |
| 20260904143516 | 87 | 214 | 1.0 | 3.0 | 0.00 | 0.49 | 0.49 | 62 | 1013.1 |
| 20260904142537 | 87 | 200 | 1.0 | 4.0 | 0.00 | 0.49 | 0.49 | 64 | 1013.3 |
| 20260904141516 | 86 | 233 | 0.0 | 3.0 | 0.00 | 0.49 | 0.49 | 65 | 1013.3 |
| 20260904140516 | 85 | 205 | 1.0 | 3.0 | 0.00 | 0.49 | 0.49 | 67 | 1013.3 |
| 20260904135517 | 85 | 214 | 1.0 | 3.0 | 0.00 | 0.49 | 0.49 | 68 | 1013.3 |
| 20260904134517 | 85 | 231 | 1.0 | 4.0 | 0.00 | 0.49 | 0.49 | 70 | 1013.1 |
| 20260904133517 | 84 | 180 | 1.0 | 3.0 | 0.00 | 0.49 | 0.49 | 70 | 1013.2 |
| 20260904132517 | 82 | 213 | 0.0 | 2.0 | 0.00 | 0.49 | 0.49 | 74 | 1013.1 |
| 20260904131517 | 80 | 184 | 0.0 | 2.0 | 0.00 | 0.49 | 0.49 | 77 | 1013.0 |
| 20260904130520 | 79 | 170 | 1.0 | 2.0 | 0.00 | 0.49 | 0.49 | 81 | 1013.1 |
| 20260904125519 | 78 | 201 | 0.0 | 1.0 | 0.00 | 0.49 | 0.49 | 84 | 1013.2 |
| 20260904124519 | 77 | 191 | 0.0 | 2.0 | 0.00 | 0.49 | 0.49 | 85 | 1013.1 |